Tracking 28096 objects as of 29-Sep-2023
HD Live streaming from Space Station
objects crossing your sky now

SL-8 R/B

Track SL-8 R/B now!
10-day predictions


NORAD ID: 13128
Int'l Code: 1982-030B
Perigee: 964.1 km
Apogee: 1,007.7 km
Inclination: 82.9 °
Period: 104.7 minutes
Semi major axis: 7356 km
RCS: 4.5308 m2 (large)
Launch date: April 8, 1982
Source: Commonwealth of Independent States (former USSR) (CIS)
Launch site: PLESETSK MISSILE AND SPACE COMPLEX (PKMTR)

Note: This is a ROCKET BODY
Your satellite tracking list
Your tracking list is empty




NASA's NSSDC Master Catalog

Two Line Element Set (TLE):
1 13128U 82030B   23271.74141297  .00000165  00000-0  15409-3 0  9992
2 13128  82.9244 137.0019 0029623 132.9342 294.6669 13.75822187 80940
Source of the keplerian elements: AFSPC